Location: Hradec Kralove
(50.2170°N, 15.8330°E)
Time: 10:30:42
(UTC+01:00)

ISS - Pass Details

Date: 19 February 2026
Orbit: 416 x 426 km, 51.6° (Epoch: 9 March)

Event Time Altitude Azimuth Distance (km) Brightness Sun altitude
Exits shadow 04:10:01 19° 100° (E) 1,075 -1.1 -27.7°
Drops below altitude 10° 04:11:18 10° 85° (E) 1,495 0.0 -27.5°
Sets 04:13:33 0° 74° (ENE) 2,360 1.4 -27.2°
